COSMOS 1360

Satellite information

Favourite Embed

Satellite Type and Status

PAYLOADIN ORBIT

Key statistics

Satellite COSMOS 1360 at a glance.

Uptime

15885

Days in orbit

Revolutions

≈ 12.5

Per day

Orbit

LEO

Low Earth Orbit

Inclination

74.0

Latest

Satellite identification and parameters

Extended collection of information and parameters for COSMOS 1360.

Object identification

Identified? True

Debris? False

Object name: COSMOS 1360

International designator: 1982-040D

Object number (NORAD): 13163

Object ID (CCSDS): 13163

Country: COMMONWEALTH OF INDEPENDENT STATES (CIS)

Current information (Y/N): Y

RCS size: MEDIUM

Orbital parameters

Period: 115.182 minutes

Inclination: 74.0107 deg

SMA: 7841.817 km

Apoapsis: 1481.16 km

Periapsis: 1446.204 km

RAAN: 249.5259 deg

Eccentricy: 0.0022288

Argument of periapsis: 43.8658 deg

Mean anomaly: 16.9264 deg

Mean motion: 12.50194886 rev/day

Mean motion (dot): -0.00000013 rev/day2

B* drag term: 0.000018706 1/REarth

Two-line elements (TLE)

Creation date: Oct. 31, 2025, 11:06 p.m.

Reference frame: TEME

Reference center: EARTH

Epoch: Oct. 31, 2025, 8:21 p.m. UTC

TLE line 0: 0 COSMOS 1360

TLE line 1: 1 13163U 82040D 25304.84831059 -.00000013 00000-0 18706-4 0 9991

TLE line 2: 2 13163 74.0107 249.5259 0022288 43.8658 16.9264 12.50194886709241

Live tracking on map

Real-time ground track for satellite COSMOS 1360.

In-orbit conjunctions

A list of the most updated potential collisions computed for object COSMOS 1360.

Target Orbit TCA Probability of collision Miss distance Type
SL-8 DEB LEO 2025-08-13 19:43:12 0.0005240289 228.0 (m) DEBRIS

Associated space launch

Military communications satellites

COSMOS 1360 was lifted into orbit during the mission ‘Kosmos-3M | Strela-1M 233-240’, on board a Kosmos-3M space rocket.

The launch took place on May 6, 1982, 6:07 p.m. from 132/2.

For more information about the launch, click the button.

Launch to space Kosmos-3M | Strela-1M 233-240
Kosmos-3M | Strela-1M 233-240

Agency: N/A

Status: Launch Successful

Launch date: May 6, 1982, 6:07 p.m. UTC

Rocket: Kosmos-3M

Launch pad: 132/2

Location: Plesetsk Cosmodrome, Russian Federation

...

Latest news about this satellite

There are no fresh news available about this satellite. Check back as we update our databases every day.


Newsletter sign-up

Weekly statistics, charts and insights to help you stay on top of the space industry.